Regional Weather Roundup
Issued by NWS

Home | Current Version | Previous Version | Text Only | Print | Product List | Glossary Off
Versions: 1 2 3 4 5 6 7 8 9 10 11 12 13 14 15 16 17 18 19 20 21 22 23 24 25 26 27 28 29 30 31 32 33 34 35 36 37 38 39 40 41 42 43 44 45 46 47 48 49 50

000
ASUS43 KOAX 151410
RWRNE

WEATHER ROUNDUP FOR NEBRASKA
NATIONAL WEATHER SERVICE OMAHA NE
800 AM CST FRI DEC 15 2017

NOTES: SATELLITE DATA IS BEING USED TO AUGMENT CLOUD COVER ABOVE
       12000 FEET.
       "FAIR" INDICATES FEW OR NO CLOUDS BELOW 12,000 FEET WITH NO
       SIGNIFICANT WEATHER AND/OR OBSTRUCTIONS TO VISIBILITY.


NEZ001>004-019>022-054>056-151500-
NEBRASKA PANHANDLE

CITY           SKY/WX    TMP DP  RH WIND       PRES   REMARKS
SCOTTSBLUFF    CLOUDY    15  11  83 NW7       29.97F WCI   5
ALLIANCE       CLOUDY    26  21  81 W14       29.93F WCI  14
CHADRON        CLOUDY    19  13  77 SW12      29.91F WCI   7
GORDON         FAIR      23  17  77 SW8       29.89F WCI  14
KIMBALL        CLOUDY    23  13  64 W12       29.99F WCI  12
SIDNEY         CLOUDY    28  14  55 W15       29.98F WCI  16
$$

NEZ057>060-069>072-079>082-151500-
SOUTHWEST NEBRASKA

CITY           SKY/WX    TMP DP  RH WIND       PRES   REMARKS
NORTH PLATTE   CLOUDY    14  11  87 W3        30.00F
IMPERIAL       CLOUDY    19  14  81 W12       30.01F WCI   7
LEXINGTON      CLOUDY    23  18  81 W10       30.03S WCI  12
MCCOOK         CLOUDY    16  12  84 W8        30.05F WCI   5
OGALLALA       CLOUDY    18  14  83 CALM      30.00F
$$

NEZ005>010-023>029-035>040-094-151500-
NORTH CENTRAL NEBRASKA

CITY           SKY/WX    TMP DP  RH WIND       PRES   REMARKS
VALENTINE      PTCLDY    24  19  81 W10       29.92F WCI  14
AINSWORTH      CLOUDY    25  21  86 W7        29.91F WCI  17
BROKEN BOW     CLOUDY    23  17  78 W10       29.97F WCI  12
O`NEILL        CLOUDY    27  24  89 SW8       29.95F WCI  18
ORD            CLOUDY    22  18  85 CALM      29.97F
THEDFORD       CLOUDY    25  19  80 W5        29.95S WCI  19
$$

NEZ041-046>049-061>064-073>077-083>087-151500-
SOUTH CENTRAL NEBRASKA

CITY           SKY/WX    TMP DP  RH WIND       PRES   REMARKS
GRAND ISLAND   CLEAR     25  22  88 SW10      30.03F WCI  15
AURORA         CLEAR     24  21  89 SW9       30.03F WCI  14
HASTINGS       CLEAR     21  17  84 SW6       30.06F WCI  13
HEBRON         CLEAR     24  21  90 SW8       30.10F WCI  15
HOLDREGE       CLOUDY    21  18  86 SW9       30.04F WCI  11
KEARNEY        CLEAR     20  17  88 SW8       30.04F WCI  10
YORK           CLEAR     25  23  93 CALM      30.05F
$$

NEZ011>018-030>034-042>045-151500-
NORTHEAST NEBRASKA

CITY           SKY/WX    TMP DP  RH WIND       PRES   REMARKS
NORFOLK        PTCLDY    27  23  85 SW8       29.97F WCI  19
ALBION         CLOUDY    26  22  84 W6        30.00F WCI  20
BLAIR          CLOUDY    32  25  76 SW10      30.03F WCI  24
COLUMBUS       CLEAR     27  23  85 SW9       30.04F WCI  18
FREMONT        CLEAR     30  24  77 SW6       30.04F WCI  24
TEKAMAH        CLOUDY    31  23  72 W13       30.03S WCI  21
WAYNE          PTCLDY    29  26  88 SW8       29.99F WCI  22
$$

NEZ050>053-065>068-078-088>093-151500-
SOUTHEAST NEBRASKA

CITY           SKY/WX    TMP DP  RH WIND       PRES   REMARKS
LINCOLN        CLEAR     27  21  78 SW8       30.09F WCI  19
OMAHA EPPLEY   MOCLDY    34  23  64 W12       30.06S WCI  25
BEATRICE       CLEAR     25  20  82 W7        30.10F WCI  17
FALLS CITY     CLEAR     30  25  81 SW10      30.11F WCI  21
NEBRASKA CITY  CLEAR     28  28  96 W9        30.10R WCI  20
PLATTSMOUTH    MOCLDY    31  26  82 SW9       30.07S WCI  22
$$

NEZ044-045-051>053-067-151500-
OMAHA AREA

CITY           SKY/WX    TMP DP  RH WIND       PRES   REMARKS
OMAHA EPPLEY   MOCLDY    34  23  64 W12       30.06S WCI  25
BLAIR          CLOUDY    32  25  76 SW10      30.03F WCI  24
FREMONT        CLEAR     30  24  77 SW6       30.04F WCI  24
MILLARD        CLOUDY    33  25  73 W8        30.07F WCI  26
OFFUTT AFB     CLOUDY    33  24  70 W8        30.06S WCI  25
PLATTSMOUTH    MOCLDY    31  26  82 SW9       30.07S WCI  22
WAHOO          FAIR      29  23  76 W8        30.06S WCI  21
$$




USA.gov is the U.S. government's official web portal to all federal, state and local government web resources and services.